Regional Weather Roundup
Issued by NWS Northern Indiana

Home | Current Version | Previous Version | Text Only | Print | Product List | Glossary Off
Versions: 1 2 3 4 5 6 7 8 9 10 11 12 13 14 15 16 17 18 19 20 21 22 23 24 25 26 27 28 29 30 31 32 33 34 35 36 37 38 39 40 41 42 43 44 45 46 47 48 49 50

000
ASUS43 KIWX 050500
RWRIWX

KIWX WEATHER ROUNDUP
NATIONAL WEATHER SERVICE NORTHERN INDIANA
100 AM EDT SAT SEP 05 2015

NOTE: "FAIR" INDICATES FEW OR NO CLOUDS BELOW 12,000 FEET WITH NO
SIGNIFICANT WEATHER AND/OR OBSTRUCTIONS TO VISIBILITY.

* THESE STATIONS ARE NOT UNDER NWS QUALITY CONTROL. THEY ALSO MAY NOT
  REPORT WEATHER SUCH AS PRECIPITATION OR FOG.

INZ001>027-050600-
NORTHERN INDIANA

CITY           SKY/WX    TMP DP  RH WIND       PRES   REMARKS
SOUTH BEND     MOCLDY    70  68  93 CALM      30.08S
GOSHEN         MOCLDY    70  66  87 S6        30.09R
ANGOLA*        CLOUDY    70  61  73 CALM      30.09S
FORT WAYNE     MOCLDY    68  63  84 SW6       30.11R
PERU/GRISSOM   MOCLDY    68  65  90 SE5       30.08F

$$
INZ028>050-050600-
CENTRAL INDIANA

CITY           SKY/WX    TMP DP  RH WIND       PRES   REMARKS
LAFAYETTE      CLEAR     67  63  87 CALM      30.07S
KOKOMO*        MOCLDY    66  63  88 E5        30.09F
MUNCIE*        CLOUDY    67  63  87 CALM      30.11R
INDIANAPOLIS   PTCLDY    71  64  78 S6        30.09R

$$
MIZ043>046-050>051-056>058-064>065-071>073-077>080-050600-
SOUTHWEST LOWER MICHIGAN

CITY           SKY/WX    TMP DP  RH WIND       PRES   REMARKS
BATTLE CREEK   PTCLDY    68  65  90 CALM      30.08S
BENTON HARBOR  MOCLDY    66  64  93 CALM      30.06S FOG
COLDWATER*     MOCLDY    70  70 100 CALM      30.08S FOG
HILLSDALE*     MOCLDY    70  70 100 S3        30.09S FOG
HOLLAND        FOG       64  61  90 CALM      30.07S VSB 1/4
GRAND RAPIDS   PTCLDY    68  67  96 CALM      30.07S
KALAMAZOO      MOCLDY    68  65  90 CALM      30.08S
STURGIS*       PTCLDY    68  66  94 SW3       30.08S
THREE RIVERS*  CLOUDY    71  70  95 CALM      30.08S

$$
OHZ001>008-015>018-024>025-050600-
NORTHWEST OHIO

CITY           SKY/WX    TMP DP  RH WIND       PRES   REMARKS
DEFIANCE       MOCLDY    71  66  84 SW3       30.09S
FINDLAY        PTCLDY    69  66  90 SE3       30.08F
TOLEDO EXPRESS PTCLDY    68  66  93 S3        30.08S
TOLEDO METCALF CLEAR     69  64  84 SW3       30.09S
LIMA           PTCLDY    66  63  90 S3        30.10S

$$
AND FOR LAKE MICHIGAN COASTAL AND OPEN LAKE BUOY OBSERVATIONS

STATION/POSITION TEMP    WIND        PRES    VSBY  WAVE
                 AIR SEA DIR/SP/G                  HT/PER
                 (F)     (DEG/KT/KT) (MB)    (MI)  (FT/S)
CALUMET HARBOR    71      30/  1/  3   N/A
MICHIGAN CITY     71     130/  5/  7   N/A
SAINT JOSEPH      68      CALM  /  1 1018.3F
SOUTH LAKE BUOY   69 71   CALM  /  2 1017.6S
4 MI NW BRIDGMAN  71 75   90/  6/  8   N/A           1
MICHIGAN CITY     72 74  160/  6/ 16   N/A           1/ 4

$$
&&



USA.gov is the U.S. government's official web portal to all federal, state and local government web resources and services.